#timestamp,LO_Frequency,Hit 
1498719615.2,286047014.8,N
1498719635.1,286047015.5,N
1498719636.0,286047015.5,N
1498719655.8,286047016.5,N
1498719675.7,286047016.9,N
1498719695.5,286047012.9,N
1498719715.3,286047012.6,N
1498719735.2,286047012.6,N
1498719755.9,286047015.2,N
1498719775.7,286047014.2,N
1498719795.6,286047014.3,N
1498719815.4,286047017.1,N
1498719835.2,286047017.2,N
1498719855.1,286047015.3,N
1498719856.0,286047015.3,N
1498719875.8,286047015.0,N
1498719895.6,286047013.2,N
1498719915.5,286047010.9,N
1498719965.3,286047013.2,Y
1498719975.2,286047006.3,N
1498719995.1,286047000.2,N
1498719996.0,286047000.2,N
1498720015.8,286046999.7,N
1498720035.6,286047002.6,N
1498720055.5,286047002.8,N
1498720075.3,286047002.7,N
1498720095.1,286046998.2,N
1498720115.9,286046999.8,N
1498720135.7,286046999.9,N
1498720155.5,286046998.6,N
1498720175.4,286046996.8,N
1498720195.2,286046999.4,N
1498720215.0,286046999.2,N
1498720215.9,286046999.2,N
1498720235.8,286046996.7,N
1498720255.6,286046998.1,N
1498720275.4,286046999.1,N
1498720295.3,286046996.9,N
1498720315.1,286046999.6,N
1498720335.8,286046999.4,N
1498720355.7,286046999.4,N
1498720375.5,286046998.9,N
1498720395.3,286046999.6,N
1498720415.2,286046996.7,N
1498720435.9,286046999.6,N
1498720455.7,286046997.0,N
1498720475.6,286046999.3,N
1498720495.4,286046998.7,N
1498720515.2,286046999.4,N
1498720535.1,286046998.4,N
1498720536.0,286046998.4,N
1498720555.8,286047000.9,N
1498720575.6,286046999.5,N
1498720595.5,286047000.4,N
1498720615.3,286047002.5,N
1498720635.1,286046999.8,N
1498720655.9,286047001.5,N
1498720675.7,286047004.2,N
1498720695.5,286047003.6,N
1498720715.4,286046999.7,N
1498720735.2,286047000.2,N
1498720755.0,286047000.9,N
1498720755.9,286047000.9,N
1498720775.8,286047000.4,N
1498720795.6,286046998.3,N
1498720815.4,286046998.8,N
1498720835.3,286046998.9,N
1498720855.1,286047001.2,N
1498720875.8,286047001.9,N
1498720895.7,286047001.3,N
1498720915.5,286046999.0,N
1498720935.3,286047000.8,N
1498720955.2,286046998.2,N
1498720975.0,286046996.6,N
1498720975.9,286046996.6,N
1498720995.7,286046997.4,N
1498721015.6,286046997.6,N
1498721035.4,286046995.6,N
1498721055.2,286046997.7,N
1498721075.1,286046995.3,N
1498721076.0,286046995.3,N
1498721095.8,286046995.0,N
1498721115.6,286046993.3,N
1498721135.5,286046995.7,N
1498721155.3,286046993.3,N
1498721175.1,286046993.7,N
1498721195.9,286046997.7,N
1498721215.7,286046996.8,N
1498721235.5,286046996.5,N
1498721255.4,286046994.9,N
1498721275.2,286046995.5,N
1498721295.0,286046995.7,N
1498721295.9,286046995.7,N
1498721315.8,286046995.9,N
1498721335.6,286046994.6,N
1498721355.4,286046994.4,N
1498721375.3,286046994.5,N
1498721395.1,286046995.8,N
1498721415.8,286046995.2,N
1498721435.7,286046995.0,N
1498721455.5,286046997.2,N
1498721475.3,286046996.7,N
1498721495.2,286046996.7,N
1498721515.0,286046999.2,N
1498721515.9,286046999.2,N
1498721535.7,286046996.7,N
1498721555.6,286046997.4,N
1498721575.4,286046994.9,N
1498721595.2,286046995.1,N
1498721615.1,286046994.1,N
1498721616.0,286046994.1,N
1498721635.8,286046994.4,N
1498721655.6,286046992.7,N
1498721675.5,286046992.0,N
1498721695.3,286046994.3,N
1498721715.1,286046994.4,N
1498721735.9,286046994.8,N
1498721755.7,286046993.9,N
1498721775.6,286046995.9,N
1498721795.4,286046996.0,N
1498721815.2,286046995.6,N
1498721835.1,286046997.9,N
1498721836.0,286046997.9,N
1498721855.8,286046997.9,N
1498721875.6,286046997.9,N
1498721895.5,286046995.2,N
1498721915.3,286046990.9,N
1498721935.1,286046990.5,N
1498721955.9,286046992.4,N
1498721975.7,286046991.8,N
1498721995.5,286046991.7,N
1498722015.4,286046993.2,N
1498722035.2,286046992.2,N
1498722055.0,286046991.9,N
1498722055.9,286046991.9,N
1498722075.8,286046990.9,N
1498722095.6,286046991.2,N
1498722115.4,286046990.9,N
1498722135.3,286046990.9,N
1498722155.1,286046990.7,N
1498722175.8,286046994.1,N
1498722195.7,286046993.8,N
1498722215.5,286046994.6,N
1498722235.3,286046992.2,N
1498722255.2,286046992.6,N
1498722275.0,286046991.9,N
1498722275.9,286046991.9,N
1498722295.7,286046993.8,N
1498722315.6,286046991.9,N
1498722335.4,286046992.9,N
1498722355.2,286046994.5,N
1498722375.1,286046992.5,N
1498722376.0,286046992.5,N
1498722395.8,286046992.5,N
1498722415.7,286046990.3,N
1498722435.5,286046991.2,N
1498722455.3,286046990.7,N
1498722475.2,286046990.1,N
1498722495.9,286046991.2,N
1498722515.7,286046991.1,N
1498722535.6,286046993.0,N
1498722555.4,286046992.0,N
1498722575.2,286046993.0,N
1498722595.1,286046990.3,N
1498722596.0,286046990.3,N
1498722615.8,286046993.0,N
1498722635.6,286046988.9,N
1498722655.5,286046991.0,N
1498722675.3,286046994.2,N
1498722695.1,286046990.6,N
1498722715.9,286046992.3,N
1498722735.7,286046994.4,N
1498722755.5,286046992.1,N
1498722775.4,286046991.9,N
1498722795.2,286046990.6,N
1498722815.0,286046990.5,N
1498722815.9,286046990.5,N
1498722835.8,286046990.7,N
1498722855.6,286046990.7,N
1498722875.4,286046989.3,N
1498722895.3,286046991.4,N
1498722915.1,286046991.6,N
1498722935.9,286046991.1,N
1498722955.7,286046991.0,N
1498722975.5,286046990.1,N
1498722995.4,286046991.2,N
1498723015.2,286046992.3,N
1498723035.0,286046990.2,N
1498723035.9,286046990.2,N
1498723055.8,286046991.5,N
1498723075.6,286046989.1,N
1498723095.4,286046989.5,N
1498723115.3,286046987.0,N
1498723135.1,286046989.1,N
1498723136.0,286046989.1,N
1498723155.8,286046988.4,N
1498723175.7,286046987.1,N
1498723195.5,286046987.1,N
